User: anonymous   Login
Location: Unspecified
(0.0000°N, 0.0000°E)
Time: 12:37:43
(UTC+00:00)
Language:

CERISE - Orbit

View from above orbital plane
View from above orbital plane
View from above satellite
View from above satellite

Ground track
Ground track

The orbit data is extracted from the following two-line orbital elements,

1 23606U 95033B   18347.94045289 +.00000406 +00000-0 +43356-4 0  9996
2 23606 098.3232 324.1369 0004455 334.4969 025.6030 14.94753459267776
Epoch (UTC): 13 December 2018 22:34:15
Eccentricity: 0.0004455
inclination: 98.3232°
perigee height: 580 km
apogee height: 586 km
right ascension of ascending node: 324.1369°
argument of perigee: 334.4969°
revolutions per day: 14.94753459
mean anomaly at epoch: 25.6030°
orbit number at epoch: 26777

The dashed part of the orbit path shows where the satellite is in the earth's shadow,  

DLR